Time,TemperatureF,DewpointF,PressureIn,WindDirection,WindDirectionDegrees,WindSpeedMPH,WindSpeedGustMPH,Humidity,HourlyPrecipIn,Conditions,Clouds,dailyrainin,SoftwareType,DateUTC
2013-03-14 00:12:00,30.0,21.0,30.33,NW,312,6.0,-999.0,68,-99.99,,,-99.99,,2013-03-14 04:12:00,
2013-03-14 00:22:00,30.0,21.0,30.33,NW,311,6.0,-999.0,68,-99.99,,,-99.99,,2013-03-14 04:22:00,
2013-03-14 00:32:00,30.0,21.0,30.33,NNW,327,5.0,-999.0,69,-99.99,,,-99.99,,2013-03-14 04:32:00,
2013-03-14 00:42:00,30.0,21.0,30.33,NNW,327,5.0,-999.0,69,-99.99,,,-99.99,,2013-03-14 04:42:00,
2013-03-14 00:53:00,29.0,21.0,30.34,WNW,296,4.0,-999.0,71,-99.99,,,-99.99,,2013-03-14 04:53:00,
2013-03-14 01:02:00,29.0,21.0,30.34,WNW,296,4.0,-999.0,71,-99.99,,,-99.99,,2013-03-14 05:02:00,
2013-03-14 01:12:00,29.0,21.0,30.34,WNW,296,4.0,-999.0,71,-99.99,,,-99.99,,2013-03-14 05:12:00,
2013-03-14 01:22:00,29.0,21.0,30.34,WNW,296,4.0,-999.0,71,-99.99,,,-99.99,,2013-03-14 05:22:00,
2013-03-14 01:33:00,28.0,20.0,30.34,WNW,295,4.0,-999.0,73,-99.99,,,-99.99,,2013-03-14 05:33:00,
2013-03-14 01:42:00,28.0,20.0,30.34,WNW,295,4.0,-999.0,73,-99.99,,,-99.99,,2013-03-14 05:42:00,
2013-03-14 01:53:00,28.0,21.0,30.35,WNW,298,3.0,-999.0,74,-99.99,,,-99.99,,2013-03-14 05:53:00,
2013-03-14 02:02:00,28.0,21.0,30.35,WNW,298,3.0,-999.0,75,-99.99,,,-99.99,,2013-03-14 06:02:00,
2013-03-14 02:12:00,28.0,21.0,30.35,WNW,298,3.0,-999.0,75,-99.99,,,-99.99,,2013-03-14 06:12:00,
2013-03-14 02:22:00,27.0,20.0,30.35,WNW,298,2.0,-999.0,75,-99.99,,,-99.99,,2013-03-14 06:22:00,
2013-03-14 02:32:00,27.0,20.0,30.35,WNW,298,1.0,-999.0,76,-99.99,,,-99.99,,2013-03-14 06:32:00,
2013-03-14 02:42:00,27.0,20.0,30.35,WNW,298,1.0,-999.0,76,-99.99,,,-99.99,,2013-03-14 06:42:00,
2013-03-14 02:52:00,27.0,20.0,30.35,WNW,298,2.0,-999.0,76,-99.99,,,-99.99,,2013-03-14 06:52:00,
2013-03-14 03:02:00,27.0,21.0,30.35,WNW,298,3.0,-999.0,77,-99.99,,,-99.99,,2013-03-14 07:02:00,
2013-03-14 03:12:00,27.0,21.0,30.35,WNW,298,3.0,-999.0,77,-99.99,,,-99.99,,2013-03-14 07:12:00,
2013-03-14 03:22:00,26.0,20.0,30.35,WNW,298,2.0,-999.0,77,-99.99,,,-99.99,,2013-03-14 07:22:00,
2013-03-14 03:32:00,26.0,20.0,30.34,WNW,298,1.0,-999.0,77,-99.99,,,-99.99,,2013-03-14 07:32:00,
2013-03-14 03:43:00,26.0,20.0,30.34,WNW,298,1.0,-999.0,77,-99.99,,,-99.99,,2013-03-14 07:43:00,
2013-03-14 03:52:00,26.0,20.0,30.34,WNW,298,0.0,-999.0,79,-99.99,,,-99.99,,2013-03-14 07:52:00,
2013-03-14 04:02:00,25.0,20.0,30.34,WNW,298,0.0,-999.0,80,-99.99,,,-99.99,,2013-03-14 08:02:00,
2013-03-14 04:12:00,25.0,20.0,30.34,WNW,298,0.0,-999.0,80,-99.99,,,-99.99,,2013-03-14 08:12:00,
2013-03-14 04:22:00,25.0,20.0,30.34,WNW,298,0.0,-999.0,80,-99.99,,,-99.99,,2013-03-14 08:22:00,
2013-03-14 04:32:00,25.0,20.0,30.33,WNW,298,0.0,-999.0,81,-99.99,,,-99.99,,2013-03-14 08:32:00,
2013-03-14 04:42:00,25.0,20.0,30.33,WNW,298,0.0,-999.0,81,-99.99,,,-99.99,,2013-03-14 08:42:00,
2013-03-14 04:52:00,25.0,20.0,30.34,WNW,298,1.0,-999.0,82,-99.99,,,-99.99,,2013-03-14 08:52:00,
2013-03-14 05:02:00,24.0,19.0,30.34,WNW,298,1.0,-999.0,82,-99.99,,,-99.99,,2013-03-14 09:02:00,
2013-03-14 05:12:00,24.0,19.0,30.34,WNW,298,1.0,-999.0,82,-99.99,,,-99.99,,2013-03-14 09:12:00,
2013-03-14 05:22:00,24.0,20.0,30.34,WNW,298,1.0,-999.0,83,-99.99,,,-99.99,,2013-03-14 09:22:00,
2013-03-14 05:32:00,24.0,20.0,30.35,WNW,298,1.0,-999.0,84,-99.99,,,-99.99,,2013-03-14 09:32:00,
2013-03-14 05:42:00,24.0,20.0,30.35,WNW,298,1.0,-999.0,84,-99.99,,,-99.99,,2013-03-14 09:42:00,
2013-03-14 05:52:00,24.0,20.0,30.35,WNW,298,1.0,-999.0,85,-99.99,,,-99.99,,2013-03-14 09:52:00,
2013-03-14 06:02:00,24.0,20.0,30.35,WNW,298,2.0,-999.0,84,-99.99,,,-99.99,,2013-03-14 10:02:00,
2013-03-14 06:12:00,24.0,20.0,30.35,WNW,298,2.0,-999.0,84,-99.99,,,-99.99,,2013-03-14 10:12:00,
2013-03-14 06:22:00,24.0,20.0,30.36,WNW,298,2.0,-999.0,83,-99.99,,,-99.99,,2013-03-14 10:22:00,
2013-03-14 06:32:00,24.0,20.0,30.36,WNW,298,2.0,-999.0,83,-99.99,,,-99.99,,2013-03-14 10:32:00,
2013-03-14 06:42:00,24.0,20.0,30.36,WNW,298,2.0,-999.0,83,-99.99,,,-99.99,,2013-03-14 10:42:00,
2013-03-14 06:52:00,24.0,19.0,30.36,WNW,298,1.0,-999.0,82,-99.99,,,-99.99,,2013-03-14 10:52:00,
2013-03-14 07:02:00,23.0,19.0,30.37,WNW,298,0.0,-999.0,83,-99.99,,,-99.99,,2013-03-14 11:02:00,
2013-03-14 07:12:00,23.0,19.0,30.37,WNW,298,0.0,-999.0,83,-99.99,,,-99.99,,2013-03-14 11:12:00,
2013-03-14 07:22:00,22.0,18.0,30.37,WNW,298,0.0,-999.0,83,-99.99,,,-99.99,,2013-03-14 11:22:00,
2013-03-14 07:33:00,22.0,18.0,30.36,WNW,298,0.0,-999.0,84,-99.99,,,-99.99,,2013-03-14 11:33:00,
2013-03-14 07:42:00,22.0,18.0,30.36,WNW,298,0.0,-999.0,84,-99.99,,,-99.99,,2013-03-14 11:42:00,
2013-03-14 07:53:00,21.0,17.0,30.36,WNW,298,0.0,-999.0,84,-99.99,,,-99.99,,2013-03-14 11:53:00,
2013-03-14 08:02:00,20.0,16.0,30.37,WNW,298,0.0,-999.0,85,-99.99,,,-99.99,,2013-03-14 12:02:00,
2013-03-14 08:12:00,20.0,16.0,30.37,WNW,298,0.0,-999.0,85,-99.99,,,-99.99,,2013-03-14 12:12:00,
2013-03-14 08:22:00,20.0,16.0,30.36,WNW,298,0.0,-999.0,86,-99.99,,,-99.99,,2013-03-14 12:22:00,
2013-03-14 08:33:00,20.0,17.0,30.37,WNW,298,0.0,-999.0,87,-99.99,,,-99.99,,2013-03-14 12:33:00,
2013-03-14 08:42:00,20.0,17.0,30.37,WNW,298,0.0,-999.0,87,-99.99,,,-99.99,,2013-03-14 12:42:00,
2013-03-14 08:52:00,20.0,17.0,30.37,WNW,298,0.0,-999.0,89,-99.99,,,-99.99,,2013-03-14 12:52:00,
2013-03-14 09:02:00,24.0,21.0,30.37,WNW,298,2.0,-999.0,89,-99.99,,,-99.99,,2013-03-14 13:02:00,
2013-03-14 09:12:00,24.0,21.0,30.37,WNW,298,2.0,-999.0,89,-99.99,,,-99.99,,2013-03-14 13:12:00,
2013-03-14 09:22:00,26.0,22.0,30.37,WNW,298,3.0,-999.0,83,-99.99,,,-99.99,,2013-03-14 13:22:00,
2013-03-14 09:32:00,27.0,21.0,30.37,WNW,298,2.0,-999.0,79,-99.99,,,-99.99,,2013-03-14 13:32:00,
2013-03-14 09:42:00,27.0,21.0,30.37,WNW,298,2.0,-999.0,79,-99.99,,,-99.99,,2013-03-14 13:42:00,
2013-03-14 09:52:00,28.0,22.0,30.38,WNW,294,4.0,-999.0,77,-99.99,,,-99.99,,2013-03-14 13:52:00,
2013-03-14 10:02:00,30.0,23.0,30.37,WNW,301,4.0,-999.0,76,-99.99,,,-99.99,,2013-03-14 14:02:00,
2013-03-14 10:12:00,30.0,23.0,30.37,WNW,301,4.0,-999.0,76,-99.99,,,-99.99,,2013-03-14 14:12:00,
2013-03-14 10:22:00,30.0,23.0,30.37,WNW,301,4.0,-999.0,76,-99.99,,,-99.99,,2013-03-14 14:22:00,
2013-03-14 10:32:00,32.0,24.0,30.37,NW,321,4.0,-999.0,71,-99.99,,,-99.99,,2013-03-14 14:32:00,
2013-03-14 10:42:00,32.0,24.0,30.37,NW,321,4.0,-999.0,71,-99.99,,,-99.99,,2013-03-14 14:42:00,
2013-03-14 10:53:00,32.0,22.0,30.37,WNW,283,3.0,-999.0,67,-99.99,,,-99.99,,2013-03-14 14:53:00,
2013-03-14 11:02:00,33.0,22.0,30.37,WNW,291,4.0,-999.0,63,-99.99,,,-99.99,,2013-03-14 15:02:00,
2013-03-14 11:12:00,33.0,22.0,30.37,WNW,291,4.0,-999.0,63,-99.99,,,-99.99,,2013-03-14 15:12:00,
2013-03-14 11:22:00,33.0,21.0,30.37,WNW,302,6.0,-999.0,60,-99.99,,,-99.99,,2013-03-14 15:22:00,
2013-03-14 11:33:00,34.0,20.0,30.37,WNW,290,5.0,-999.0,56,-99.99,,,-99.99,,2013-03-14 15:33:00,
2013-03-14 11:43:00,34.0,20.0,30.37,WNW,290,5.0,-999.0,56,-99.99,,,-99.99,,2013-03-14 15:43:00,
2013-03-14 11:52:00,35.0,22.0,30.37,WNW,294,4.0,-999.0,58,-99.99,,,-99.99,,2013-03-14 15:52:00,
2013-03-14 12:03:00,35.0,19.0,30.37,NW,306,5.0,-999.0,51,-99.99,,,-99.99,,2013-03-14 16:03:00,
2013-03-14 12:13:00,35.0,19.0,30.37,NW,306,5.0,-999.0,51,-99.99,,,-99.99,,2013-03-14 16:13:00,
2013-03-14 12:23:00,36.0,20.0,30.36,NW,310,5.0,-999.0,51,-99.99,,,-99.99,,2013-03-14 16:23:00,
2013-03-14 12:32:00,36.0,20.0,30.36,NW,310,5.0,-999.0,51,-99.99,,,-99.99,,2013-03-14 16:32:00,
2013-03-14 12:42:00,36.0,20.0,30.36,NW,310,5.0,-999.0,51,-99.99,,,-99.99,,2013-03-14 16:42:00,
2013-03-14 12:52:00,37.0,18.0,30.35,West,259,6.0,-999.0,45,-99.99,,,-99.99,,2013-03-14 16:52:00,
2013-03-14 13:02:00,37.0,18.0,30.35,NW,316,5.0,-999.0,46,-99.99,,,-99.99,,2013-03-14 17:02:00,
2013-03-14 13:13:00,37.0,18.0,30.35,NW,316,5.0,-999.0,46,-99.99,,,-99.99,,2013-03-14 17:13:00,
2013-03-14 13:23:00,39.0,18.0,30.35,NNW,334,4.0,-999.0,43,-99.99,,,-99.99,,2013-03-14 17:23:00,
2013-03-14 13:32:00,39.0,17.0,30.34,NNW,340,5.0,-999.0,40,-99.99,,,-99.99,,2013-03-14 17:32:00,
2013-03-14 13:42:00,39.0,17.0,30.34,NNW,340,5.0,-999.0,40,-99.99,,,-99.99,,2013-03-14 17:42:00,
2013-03-14 13:53:00,40.0,21.0,30.33,WSW,241,4.0,-999.0,46,-99.99,,,-99.99,,2013-03-14 17:53:00,
2013-03-14 14:03:00,40.0,19.0,30.33,WNW,285,5.0,-999.0,42,-99.99,,,-99.99,,2013-03-14 18:03:00,
2013-03-14 14:12:00,40.0,19.0,30.33,WNW,285,5.0,-999.0,42,-99.99,,,-99.99,,2013-03-14 18:12:00,
2013-03-14 14:23:00,41.0,20.0,30.32,WNW,294,7.0,-999.0,42,-99.99,,,-99.99,,2013-03-14 18:23:00,
2013-03-14 14:33:00,41.0,19.0,30.31,WNW,282,5.0,-999.0,41,-99.99,,,-99.99,,2013-03-14 18:33:00,
2013-03-14 14:43:00,41.0,19.0,30.31,WNW,282,5.0,-999.0,41,-99.99,,,-99.99,,2013-03-14 18:43:00,
2013-03-14 14:53:00,42.0,18.0,30.30,West,271,4.0,-999.0,38,-99.99,,,-99.99,,2013-03-14 18:53:00,
2013-03-14 15:03:00,42.0,18.0,30.29,NW,313,7.0,-999.0,38,-99.99,,,-99.99,,2013-03-14 19:03:00,
2013-03-14 15:12:00,42.0,18.0,30.29,NW,313,7.0,-999.0,38,-99.99,,,-99.99,,2013-03-14 19:12:00,
2013-03-14 15:23:00,43.0,19.0,30.29,West,263,3.0,-999.0,37,-99.99,,,-99.99,,2013-03-14 19:23:00,
2013-03-14 15:32:00,43.0,19.0,30.28,WSW,241,7.0,-999.0,37,-99.99,,,-99.99,,2013-03-14 19:32:00,
2013-03-14 15:42:00,43.0,19.0,30.28,WSW,241,7.0,-999.0,37,-99.99,,,-99.99,,2013-03-14 19:42:00,
2013-03-14 15:52:00,43.0,17.0,30.27,WNW,290,7.0,-999.0,35,-99.99,,,-99.99,,2013-03-14 19:52:00,
2013-03-14 16:02:00,44.0,21.0,30.27,SW,236,7.0,-999.0,39,-99.99,,,-99.99,,2013-03-14 20:02:00,
2013-03-14 16:12:00,44.0,21.0,30.27,SW,236,7.0,-999.0,39,-99.99,,,-99.99,,2013-03-14 20:12:00,
2013-03-14 16:22:00,44.0,19.0,30.26,NW,306,6.0,-999.0,36,-99.99,,,-99.99,,2013-03-14 20:22:00,
2013-03-14 16:32:00,44.0,19.0,30.25,NNW,334,5.0,-999.0,36,-99.99,,,-99.99,,2013-03-14 20:32:00,
2013-03-14 16:42:00,44.0,19.0,30.25,NNW,334,5.0,-999.0,36,-99.99,,,-99.99,,2013-03-14 20:42:00,
2013-03-14 16:52:00,45.0,18.0,30.25,West,278,5.0,-999.0,34,-99.99,,,-99.99,,2013-03-14 20:52:00,
2013-03-14 17:02:00,45.0,18.0,30.25,West,281,7.0,-999.0,33,-99.99,,,-99.99,,2013-03-14 21:02:00,
2013-03-14 17:13:00,45.0,18.0,30.25,West,281,7.0,-999.0,33,-99.99,,,-99.99,,2013-03-14 21:13:00,
2013-03-14 17:22:00,46.0,19.0,30.24,NW,306,4.0,-999.0,33,-99.99,,,-99.99,,2013-03-14 21:22:00,
2013-03-14 17:33:00,45.0,19.0,30.24,NW,315,4.0,-999.0,35,-99.99,,,-99.99,,2013-03-14 21:33:00,
2013-03-14 17:43:00,45.0,19.0,30.24,NW,315,4.0,-999.0,35,-99.99,,,-99.99,,2013-03-14 21:43:00,
2013-03-14 17:53:00,45.0,19.0,30.23,West,280,6.0,-999.0,35,-99.99,,,-99.99,,2013-03-14 21:53:00,
2013-03-14 18:04:00,45.0,20.0,30.23,WNW,282,3.0,-999.0,37,-99.99,,,-99.99,,2013-03-14 22:04:00,
2013-03-14 18:13:00,45.0,20.0,30.23,WNW,282,3.0,-999.0,37,-99.99,,,-99.99,,2013-03-14 22:13:00,
2013-03-14 18:23:00,45.0,20.0,30.23,NW,319,6.0,-999.0,37,-99.99,,,-99.99,,2013-03-14 22:23:00,
2013-03-14 18:33:00,45.0,18.0,30.22,West,261,7.0,-999.0,34,-99.99,,,-99.99,,2013-03-14 22:33:00,
2013-03-14 18:42:00,45.0,18.0,30.22,West,261,7.0,-999.0,34,-99.99,,,-99.99,,2013-03-14 22:42:00,
2013-03-14 18:53:00,45.0,19.0,30.23,WNW,291,6.0,-999.0,35,-99.99,,,-99.99,,2013-03-14 22:53:00,
2013-03-14 19:03:00,44.0,17.0,30.22,WNW,290,7.0,-999.0,34,-99.99,,,-99.99,,2013-03-14 23:03:00,
2013-03-14 19:12:00,44.0,17.0,30.22,WNW,290,7.0,-999.0,34,-99.99,,,-99.99,,2013-03-14 23:12:00,
2013-03-14 19:23:00,44.0,18.0,30.23,West,274,6.0,-999.0,35,-99.99,,,-99.99,,2013-03-14 23:23:00,
2013-03-14 19:33:00,43.0,19.0,30.23,WNW,286,4.0,-999.0,37,-99.99,,,-99.99,,2013-03-14 23:33:00,
2013-03-14 19:42:00,43.0,19.0,30.23,WNW,286,4.0,-999.0,37,-99.99,,,-99.99,,2013-03-14 23:42:00,
2013-03-14 19:54:00,43.0,20.0,30.23,WNW,286,2.0,-999.0,39,-99.99,,,-99.99,,2013-03-14 23:54:00,
2013-03-14 20:02:00,41.0,20.0,30.22,WNW,286,0.0,-999.0,43,-99.99,,,-99.99,,2013-03-15 00:02:00,
2013-03-14 20:12:00,40.0,21.0,30.22,WNW,286,0.0,-999.0,46,-99.99,,,-99.99,,2013-03-15 00:12:00,
2013-03-14 20:23:00,40.0,21.0,30.22,WNW,286,0.0,-999.0,46,-99.99,,,-99.99,,2013-03-15 00:23:00,
2013-03-14 20:32:00,39.0,21.0,30.22,WNW,286,0.0,-999.0,48,-99.99,,,-99.99,,2013-03-15 00:32:00,
2013-03-14 20:42:00,39.0,21.0,30.22,WNW,286,0.0,-999.0,48,-99.99,,,-99.99,,2013-03-15 00:42:00,
2013-03-14 20:52:00,38.0,22.0,30.22,WNW,286,0.0,-999.0,52,-99.99,,,-99.99,,2013-03-15 00:52:00,
2013-03-14 21:02:00,38.0,23.0,30.21,WNW,286,0.0,-999.0,54,-99.99,,,-99.99,,2013-03-15 01:02:00,
2013-03-14 21:12:00,38.0,23.0,30.21,WNW,286,0.0,-999.0,54,-99.99,,,-99.99,,2013-03-15 01:12:00,
2013-03-14 21:22:00,38.0,23.0,30.21,WNW,286,0.0,-999.0,55,-99.99,,,-99.99,,2013-03-15 01:22:00,
2013-03-14 21:32:00,38.0,25.0,30.22,WNW,286,0.0,-999.0,58,-99.99,,,-99.99,,2013-03-15 01:32:00,
2013-03-14 21:42:00,38.0,25.0,30.22,WNW,286,0.0,-999.0,58,-99.99,,,-99.99,,2013-03-15 01:42:00,
2013-03-14 21:52:00,38.0,25.0,30.22,WNW,286,0.0,-999.0,59,-99.99,,,-99.99,,2013-03-15 01:52:00,
2013-03-14 22:02:00,38.0,25.0,30.22,WNW,286,0.0,-999.0,59,-99.99,,,-99.99,,2013-03-15 02:02:00,
2013-03-14 22:12:00,38.0,25.0,30.22,WNW,286,0.0,-999.0,59,-99.99,,,-99.99,,2013-03-15 02:12:00,
2013-03-14 22:22:00,39.0,23.0,30.22,WNW,286,1.0,-999.0,53,-99.99,,,-99.99,,2013-03-15 02:22:00,
2013-03-14 22:32:00,41.0,24.0,30.23,West,277,5.0,-999.0,51,-99.99,,,-99.99,,2013-03-15 02:32:00,
2013-03-14 22:42:00,41.0,24.0,30.23,West,277,5.0,-999.0,51,-99.99,,,-99.99,,2013-03-15 02:42:00,
2013-03-14 22:52:00,41.0,25.0,30.22,NW,306,5.0,-999.0,53,-99.99,,,-99.99,,2013-03-15 02:52:00,
2013-03-14 23:02:00,41.0,26.0,30.22,West,279,5.0,-999.0,54,-99.99,,,-99.99,,2013-03-15 03:02:00,
2013-03-14 23:12:00,41.0,26.0,30.22,West,279,5.0,-999.0,54,-99.99,,,-99.99,,2013-03-15 03:12:00,
2013-03-14 23:22:00,41.0,27.0,30.23,West,277,5.0,-999.0,56,-99.99,,,-99.99,,2013-03-15 03:22:00,
2013-03-14 23:33:00,41.0,27.0,30.23,West,277,2.0,-999.0,57,-99.99,,,-99.99,,2013-03-15 03:33:00,
2013-03-14 23:43:00,41.0,27.0,30.23,West,277,2.0,-999.0,57,-99.99,,,-99.99,,2013-03-15 03:43:00,
2013-03-14 23:53:00,41.0,27.0,30.24,West,277,3.0,-999.0,58,-99.99,,,-99.99,,2013-03-15 03:53:00,